THOR ABLESTAR DEB, 5265

Orbit data source: Space-Track

THOR ABLESTAR DEB, 5265 is space debris in LEO originally from a launch on Fri, 13 Aug 1965 UTC launched from the Air Force Western Test Range (AFWTR). Debris objects in space refer to the collection of defunct objects orbiting the Earth. Examples of debris include non-operational satellites, rocket bodies, and fragments generated from explosions, collisions, or faulty payload assembly.

Loading next visibility...
Identifier
5265, 1965-065Q
Orbit
LEO
Country
Flag of USUS
Related business
Manufacturer
Unknown
Mission
Spacecraft
Bus & Motor
Unknown
Mass
Unknown
Launch date (UTC)
1965-08-13 (60 years ago)
Launch vehicle
Unknown
Launch site
Air Force Western Test Range (AFWTR)
Object type
Payload
Rocket body
Debris
Shape & HBR
Unknown
Radar Cross Section
0.070 m², Small (<0.1 m²)

Expand to show TLE details & history
Last TLE update: 10 hours ago

TLE from 10 hours ago
0 THOR ABLESTAR DEB
1 05265U 65065Q   25242.70527547  .00000172  00000-0  28703-3 0  9995
2 05265  90.1441 301.8414 0044299 102.3848  27.4075 13.42380220933649
Epoch: 2025-08-30T16:55Z
TLE epoch observation values (Epoch: 2025-08-30T16:55:35.8Z)
Latitude
50.06637°
Longitude
-111.02225°
Altitude
1,079.075 km
Speed
7.332 km/s
True Right ascension
08h 08m 03s
True Declination
49° 54' 16"
Sunlit
Object was in daylight at epoch
Visualization orbit readout
Latitude
Unknown
Longitude
Unknown
Altitude
Unknown
Speed
Unknown
Apparent Right ascension
Unknown
Apparent Declination
Unknown
Sunlit
N/A
Visualization observer readout
Local Sidereal Time
19:02:04
Azimuth
Unknown
Elevation
Unknown
Doppler factor
Unknown
Orbital elements
Apogee altitude
1,130.603 km
Perigee altitude
1,064.37 km
Semi-major axis
7,475.624 km
Eccentricity
0.00443
Inclination
90.1441°
RAAN
301.8414°
Arg. of periapsis
102.3848°
True anomaly
27.64232°
Mean anomaly
27.4075°
Eccentric anomaly
27.5248°
Mean motion
3.35793 °/min
Orbital period
107.21 mins
BSTAR
0.00028703
Loading maneuver chart data...
Computing Atmospheric mass density...
Loading historical data...
Loading historical data...
Loading historical data...
Loading historical data...
Loading historical data...
Loading historical data...
Loading historical data...

Documentation

Showing up to 5 results
|